When you browse on this site, cookies collect data to enhance your experience and personalize the content and advertising you see.
Visit our Privacy Policy to learn more. By continuing to use the site, you agree to this use of cookies and data.
  • In Portugal
  • List of Countries
  • For 7 days
  • Water Temperature
  • Satellite Maps
  • Weather Map
  • Weather Widgets
  • user-avatar
    Login

    Hourly Weather Prutz

    Today, 24 January, Thursday

    Time Temperature Precipitation Wind Pressure Humidity
    00:00 -13°C° 0 mm 0 mps 614 mmHg 91%
    01:00 -14°C° 0 mm 0 mps 615 mmHg 95%
    02:00 -14°C° 0 mm 0 mps 615 mmHg 94%
    03:00 -14°C° 0 mm 0 mps 615 mmHg 94%
    04:00 -15°C° 0 mm 1 mps 615 mmHg 93%
    05:00 -15°C° 0 mm 1 mps 615 mmHg 93%
    06:00 -15°C° 0 mm 1 mps 616 mmHg 92%
    07:00 -15°C° 0 mm 1 mps 616 mmHg 92%
    08:00 -13°C° 0 mm 1 mps 617 mmHg 91%
    09:00 -11°C° 0 mm 1 mps 618 mmHg 89%
    10:00 -10°C° 0 mm 1 mps 619 mmHg 88%
    11:00 -9°C° 0 mm 1 mps 619 mmHg 87%
    12:00 -8°C° 0 mm 1 mps 620 mmHg 87%
    13:00 -8°C° 0 mm 2 mps 620 mmHg 87%
    14:00 -8°C° 0 mm 2 mps 620 mmHg 88%
    15:00 -8°C° 0 mm 2 mps 620 mmHg 90%
    16:00 -8°C° 0 mm 2 mps 620 mmHg 91%
    17:00 -10°C° 0 mm 2 mps 620 mmHg 93%
    18:00 -11°C° 0 mm 1 mps 620 mmHg 95%
    19:00 -13°C° 0 mm 1 mps 620 mmHg 97%
    20:00 -13°C° 0 mm 1 mps 620 mmHg 96%
    21:00 -14°C° 0 mm 1 mps 621 mmHg 95%
    22:00 -15°C° 0 mm 1 mps 621 mmHg 95%
    23:00 -15°C° 0 mm 1 mps 621 mmHg 95%

    Tomorrow, 25 January, Friday

    Time Temperature Precipitation Wind Pressure Humidity
    00:00 -15°C° 0 mm 1 mps 621 mmHg 95%
    01:00 -15°C° 0 mm 1 mps 621 mmHg 95%
    02:00 -15°C° 0 mm 1 mps 621 mmHg 96%
    03:00 -15°C° 0 mm 1 mps 621 mmHg 96%
    04:00 -15°C° 0 mm 1 mps 622 mmHg 96%
    05:00 -15°C° 0 mm 1 mps 622 mmHg 96%
    06:00 -16°C° 0 mm 1 mps 622 mmHg 96%
    07:00 -16°C° 0 mm 1 mps 622 mmHg 95%
    08:00 -14°C° 0 mm 1 mps 623 mmHg 93%
    09:00 -13°C° 0 mm 1 mps 624 mmHg 91%
    10:00 -12°C° 0 mm 1 mps 625 mmHg 90%
    11:00 -12°C° 0 mm 2 mps 625 mmHg 88%
    12:00 -10°C° 0 mm 2 mps 625 mmHg 87%
    13:00 -9°C° 0 mm 2 mps 625 mmHg 86%
    14:00 -10°C° 0 mm 2 mps 625 mmHg 88%
    15:00 -10°C° 0 mm 2 mps 625 mmHg 89%
    16:00 -10°C° 0 mm 2 mps 625 mmHg 91%
    17:00 -13°C° 0 mm 2 mps 625 mmHg 92%
    18:00 -14°C° 0 mm 1 mps 625 mmHg 93%
    19:00 -16°C° 0 mm 1 mps 625 mmHg 94%
    20:00 -16°C° 0 mm 1 mps 625 mmHg 87%
    21:00 -16°C° 0 mm 1 mps 626 mmHg 81%
    22:00 -16°C° 0 mm 1 mps 626 mmHg 75%
    23:00 -15°C° 0 mm 1 mps 626 mmHg 67%

    Day after tomorrow, 26 January, Saturday

    Time Temperature Precipitation Wind Pressure Humidity
    00:00 -14°C° 0 mm 1 mps 626 mmHg 60%
    01:00 -14°C° 0 mm 1 mps 627 mmHg 53%
    02:00 -15°C° 0 mm 2 mps 627 mmHg 50%
    03:00 -14°C° 0 mm 2 mps 627 mmHg 47%
    04:00 -13°C° 0 mm 2 mps 628 mmHg 44%
    05:00 -12°C° 0 mm 2 mps 628 mmHg 49%
    06:00 -10°C° 0 mm 2 mps 628 mmHg 54%
    07:00 -9°C° 0 mm 2 mps 628 mmHg 59%
    08:00 -7°C° 0 mm 2 mps 628 mmHg 67%
    09:00 -6°C° 0 mm 2 mps 629 mmHg 74%
    10:00 -4°C° 0 mm 2 mps 629 mmHg 82%
    11:00 -3°C° 0 mm 2 mps 629 mmHg 85%
    12:00 -1°C° 0 mm 2 mps 629 mmHg 89%
    13:00 +1°C° 0 mm 2 mps 629 mmHg 92%
    14:00 +1°C° 0 mm 2 mps 629 mmHg 92%
    15:00 -1°C° 0 mm 2 mps 628 mmHg 91%
    16:00 +1°C° 0 mm 1 mps 628 mmHg 91%
    17:00 0°C° 0 mm 1 mps 627 mmHg 91%
    18:00 -2°C° 0 mm 1 mps 627 mmHg 91%
    19:00 -4°C° 0 mm 1 mps 626 mmHg 91%
    20:00 -4°C° 0 mm 1 mps 626 mmHg 90%
    21:00 -4°C° 0 mm 1 mps 626 mmHg 88%
    22:00 -7°C° 0 mm 2 mps 625 mmHg 86%
    23:00 -6°C° 0 mm 2 mps 625 mmHg 83%

    27 January, Sunday

    Time Temperature Precipitation Wind Pressure Humidity
    00:00 -6°C° 0 mm 2 mps 625 mmHg 80%
    01:00 -6°C° 0 mm 2 mps 624 mmHg 77%
    02:00 -6°C° 0 mm 2 mps 624 mmHg 75%
    03:00 -6°C° 0 mm 2 mps 623 mmHg 73%
    04:00 -7°C° 0 mm 3 mps 623 mmHg 70%
    05:00 -7°C° 0 mm 3 mps 622 mmHg 71%
    06:00 -7°C° 0 mm 3 mps 622 mmHg 71%
    07:00 -7°C° 0 mm 3 mps 621 mmHg 71%
    08:00 -5°C° 0 mm 3 mps 621 mmHg 75%
    09:00 -4°C° 0 mm 3 mps 621 mmHg 78%
    10:00 -2°C° 0 mm 3 mps 621 mmHg 81%
    11:00 -1°C° 0 mm 2 mps 621 mmHg 84%
    12:00 +1°C° 0 mm 2 mps 620 mmHg 86%
    13:00 +2°C° 0 mm 2 mps 620 mmHg 88%
    14:00 +1°C° 0 mm 2 mps 619 mmHg 88%
    15:00 -1°C° 0 mm 2 mps 619 mmHg 88%
    16:00 -1°C° 0 mm 2 mps 618 mmHg 88%
    17:00 -3°C° 0.1 mm 2 mps 617 mmHg 88%
    18:00 -4°C° 0.1 mm 2 mps 617 mmHg 88%
    19:00 -7°C° 0.1 mm 3 mps 616 mmHg 88%
    20:00 -6°C° 0.2 mm 2 mps 616 mmHg 88%
    21:00 -6°C° 0.2 mm 2 mps 616 mmHg 87%
    22:00 -6°C° 0.2 mm 2 mps 616 mmHg 87%
    23:00 -6°C° 0.1 mm 2 mps 615 mmHg 86%

    28 January, Monday

    Time Temperature Precipitation Wind Pressure Humidity
    00:00 -7°C° 0.1 mm 2 mps 615 mmHg 86%
    01:00 -7°C° 0.1 mm 2 mps 614 mmHg 85%
    02:00 -7°C° 0.1 mm 2 mps 614 mmHg 85%
    03:00 -7°C° 0.1 mm 2 mps 614 mmHg 86%
    04:00 -7°C° 0.1 mm 2 mps 614 mmHg 87%
    05:00 -7°C° 0.3 mm 2 mps 614 mmHg 88%
    06:00 -7°C° 0.3 mm 2 mps 614 mmHg 89%
    07:00 -6°C° 0.3 mm 1 mps 614 mmHg 90%
    08:00 -4°C° 0.3 mm 1 mps 614 mmHg 89%
    09:00 -3°C° 0.3 mm 1 mps 615 mmHg 89%
    10:00 -3°C° 0.3 mm 1 mps 615 mmHg 89%
    11:00 -4°C° 0.3 mm 2 mps 616 mmHg 85%
    12:00 -4°C° 0.3 mm 2 mps 616 mmHg 82%
    13:00 -3°C° 0.3 mm 2 mps 616 mmHg 78%
    14:00 -3°C° 0.3 mm 2 mps 616 mmHg 82%
    15:00 -4°C° 0.3 mm 2 mps 616 mmHg 86%
    16:00 -4°C° 0.3 mm 2 mps 617 mmHg 90%
    17:00 -5°C° 0.3 mm 2 mps 617 mmHg 91%
    18:00 -6°C° 0.3 mm 2 mps 618 mmHg 93%
    19:00 -4°C° 0.3 mm 1 mps 618 mmHg 94%
    20:00 -7°C° 0.4 mm 2 mps 619 mmHg 94%
    21:00 -7°C° 0.4 mm 2 mps 620 mmHg 95%
    22:00 -7°C° 0.4 mm 2 mps 621 mmHg 95%
    23:00 -7°C° 0.4 mm 2 mps 621 mmHg 96%

    29 January, Tuesday

    Time Temperature Precipitation Wind Pressure Humidity
    00:00 -8°C° 0.4 mm 2 mps 622 mmHg 96%
    01:00 -8°C° 0.4 mm 2 mps 622 mmHg 97%
    02:00 -9°C° 0.1 mm 2 mps 622 mmHg 97%
    03:00 -9°C° 0.1 mm 1 mps 622 mmHg 96%
    04:00 -10°C° 0.1 mm 1 mps 622 mmHg 96%
    05:00 -11°C° 0.1 mm 1 mps 622 mmHg 94%
    06:00 -11°C° 0.1 mm 1 mps 622 mmHg 93%
    07:00 -12°C° 0.1 mm 1 mps 622 mmHg 91%
    08:00 -10°C° 0 mm 1 mps 623 mmHg 89%
    09:00 -9°C° 0 mm 1 mps 624 mmHg 87%
    10:00 -8°C° 0 mm 1 mps 624 mmHg 86%
    11:00 -7°C° 0 mm 1 mps 624 mmHg 79%
    12:00 -4°C° 0 mm 1 mps 624 mmHg 73%
    13:00 -3°C° 0 mm 1 mps 624 mmHg 67%
    14:00 -3°C° 0 mm 1 mps 624 mmHg 72%
    15:00 -4°C° 0 mm 1 mps 624 mmHg 76%
    16:00 -4°C° 0 mm 1 mps 624 mmHg 81%
    17:00 -6°C° 0 mm 1 mps 624 mmHg 83%
    18:00 -7°C° 0 mm 1 mps 624 mmHg 86%
    19:00 -9°C° 0 mm 1 mps 624 mmHg 88%
    20:00 -9°C° 0 mm 1 mps 624 mmHg 88%
    21:00 -12°C° 0 mm 2 mps 624 mmHg 87%
    22:00 -12°C° 0 mm 2 mps 624 mmHg 86%
    23:00 -13°C° 0 mm 2 mps 623 mmHg 84%
    Show more